Simultaneous Nadir Overpasses (SNOs) Predictions

Prediction of SNOs between AURA and NPP Satellite Orbit:

Table of predicted SNOs for the next 14.0 days since TLE Epoch: 10/18/2019
Index Date (AURA) Time (AURA) Lat,Lon (AURA) SZA (AURA ) Date (NPP) Time (NPP) Lat,Lon (NPP) SZA (NPP ) Distance(km) Time Diff (sec)
1 10/19/2019 02:51:49 -79.42,-146.79 78.47 10/19/2019 02:51:09 -79.42,-146.82 78.44 0.63 40
2 10/19/2019 03:41:09 79.64, 22.40 101.24 10/19/2019 03:41:47 79.63, 22.28 101.23 2.54 38
3 10/21/2019 19:08:15 -79.50, -30.33 77.67 10/21/2019 19:08:00 -79.50, -30.39 77.64 1.35 15
4 10/21/2019 19:57:35 79.72, 138.86 102.05 10/21/2019 19:58:38 79.71, 138.72 102.03 3.06 63
5 10/24/2019 10:35:22 79.30, -83.44 103.51 10/24/2019 10:34:15 79.30, -83.54 103.58 2.24 67
6 10/24/2019 11:24:42 -79.58, 86.10 76.87 10/24/2019 11:24:52 -79.58, 86.03 76.86 1.68 10
7 10/27/2019 02:51:48 79.42, 33.19 104.24 10/27/2019 02:51:06 79.41, 33.10 104.29 2.13 42
8 10/27/2019 03:41:09 -79.66,-157.48 76.08 10/27/2019 03:41:44 -79.65,-157.56 76.09 1.61 35
9 10/29/2019 19:08:15 79.49, 149.55 105.02 10/29/2019 19:07:58 79.48, 149.47 105.05 1.65 17
10 10/29/2019 19:57:35 -79.76, -40.82 75.35 10/29/2019 19:58:35 -79.76, -40.87 75.39 1.13 60
11 11/01/2019 10:35:20 -79.38, 97.05 74.00 11/01/2019 10:34:10 -79.38, 97.08 73.95 0.76 70




NCC Satellite Simultaneous Nadir Overpasses (SNOs) Prediction Service
